C/2002 Q1 (Van Ness) 

T 2002 July 26.12504 TT                                 Nakano

q   1.6602222            (2000.0)            P               Q

                   Peri.  191.08366     +0.98463730     -0.17397233

                   Node   178.63491     +0.16387018     +0.95021192

e   1.0            Incl.   38.81806     -0.06029878     -0.25851680

From 32 observations 2002 Aug. 17-21.

Residuals in seconds of arc 

2002/                     020818 118  0.9-  0.2-    020818 848  0.1+  0.0   

020817 699  1.9-  0.8-    020818 118  0.5-  0.1+    020819 848  1.1+  0.4+  

020817 699  0.3-  1.7-    020818 118  0.8+  0.6-    020819 848  0.4-  0.1+  

020817 699 (3.8-  1.2-)   020818 620 (4.3-  1.0+)   020819 848  0.3-  0.8+  

020817 699 (3.8-  1.9-)   020818 620 (2.7+  0.2-)   020819 413  0.8+  1.9+  

020818 046  0.9+  0.2-    020818 620  1.7-  0.6-    020819 413  0.8+  1.9+  

020818 046  0.6+  0.9-    020818 620 (1.6+  2.1+)   020819 413 (0.7+  2.3+) 

020818 046  1.3+  0.2-    020818 620  0.7-  1.2+    020820 349  0.2-  0.5-  

020818 046  0.1-  0.1-    020818 658  0.7+  0.1-    020820 349  0.3+  0.3-  

020818 046  0.7-  0.5-    020818 658  0.3+  0.1+    020820 349  0.2-  0.0   

020818 046  0.5+  0.7-    020818 658  0.4+  0.9+    020820 349  0.1+  0.8-  

020818 046  0.9+  0.1-    020818 848  0.7-  1.1+    020821 170  0.4-  0.2-  

020818 118  1.0+  1.4+    020818 848  0.6-  0.3+    020821 170  1.0-  1.9-  



NAKANO

         **** Don't distribute anyone except personal use only ****

                (C) Copyright 2002 OAA/ComputingSection

write mail from CFAD0::NAKANO on 2002-08-27 05:17:55(JST).

 

◎C/2002 Q1の軌道と予報位置です



 上尾の門田健一氏は,8月20日にこの彗星を観測しました.氏の CCD全光度は

16.7等で,コマの視直径0'.4,集光した拡散像で,P.A.262゚に長さ0'.6のやや広

がった淡い尾があるとのことです.



    C/2002 Q1 (van Ness) 

T 2002 July 26.23406 TT                                 Nakano

q   1.6611515            (2000.0)            P               Q

                   Peri.  191.15704     +0.98434956     -0.17561859

                   Node   178.66324     +0.16551456     +0.94982574

e   1.0            Incl.   38.83919     -0.06050508     -0.25882268

From 28 observations 2002 Aug. 17-20.

 

Date/        TT  R.A.(2000) Decl.     Delta   r     Daily motion  Mag.  Moon Age

              h    h  m       。  ,                      ,  / PA 。  m1      。

2002 Aug. 20 18  04 05.94  -00 14.9   1.391  1.696    44.8 / 125  16.0  114  .95

          21 18  04 08.38  -00 40.7   1.387  1.698    44.6 / 126  16.0  102  .98

          22 18  04 10.79  -01 06.8   1.384  1.701    44.4 / 126  16.0   91 1.00

          23 18  04 13.18  -01 33.1   1.380  1.704    44.3 / 127  16.0   80  .99

          24 18  04 15.55  -01 59.6   1.377  1.707    44.1 / 127  16.0   70  .97

          25 18  04 17.89  -02 26.3   1.374  1.710    43.9 / 128  16.0   59  .93

          26 18  04 20.20  -02 53.2   1.372  1.713    43.7 / 128  16.0   49  .87

          27 18  04 22.49  -03 20.3   1.369  1.717    43.5 / 129  16.0   40  .80

          28 18  04 24.75  -03 47.6   1.366  1.720    43.2 / 129  16.0   32  .72

          29 18  04 26.98  -04 15.1   1.364  1.723    43.0 / 130  16.0   27  .63

          30 18  04 29.19  -04 42.7   1.362  1.727    42.8 / 131  16.0   25  .53

          31 18  04 31.36  -05 10.5   1.360  1.731    42.5 / 131  16.0   29  .44

     Sept. 1 18  04 33.51  -05 38.4   1.358  1.734    42.2 / 132  16.1   36  .34

           2 18  04 35.62  -06 06.5   1.356  1.738    42.0 / 132  16.1   45  .24

           3 18  04 37.71  -06 34.7   1.354  1.742    41.7 / 133  16.1   56  .15

           4 18  04 39.77  -07 03.0   1.352  1.746    41.4 / 133  16.1   68  .08

           5 18  04 41.79  -07 31.4   1.351  1.750    41.1 / 134  16.1   80  .03

           6 18  04 43.78  -07 59.8   1.350  1.755    40.8 / 135  16.1   93  .00

           7 18  04 45.74  -08 28.4   1.349  1.759    40.4 / 135  16.1  105  .01

           8 18  04 47.67  -08 57.0   1.348  1.763    40.1 / 136  16.1  118  .04

           9 18  04 49.56  -09 25.7   1.347  1.768    39.8 / 136  16.1  129  .10

          10 18  04 51.42  -09 54.4   1.346  1.772    39.4 / 137  16.1  138  .18

          11 18  04 53.25  -10 23.2   1.345  1.777    39.1 / 137  16.1  145  .28

          12 18  04 55.04  -10 51.9   1.345  1.781    38.7 / 138  16.2  147  .39

          13 18  04 56.80  -11 20.7   1.345  1.786    38.3 / 139  16.2  144  .50

          14 18  04 58.52  -11 49.5   1.344  1.791    37.9 / 139  16.2  138  .61

          15 18  05 00.21  -12 18.2   1.344  1.796    37.6 / 140  16.2  130  .70

          16 18  05 01.86  -12 46.9   1.344  1.801    37.2 / 141  16.2  121  .79

          17 18  05 03.48  -13 15.6   1.345  1.806    36.8 / 141  16.2  112  .87

          18 18  05 05.06  -13 44.2   1.345  1.811    36.3 / 142  16.2  102  .93

          19 18  05 06.60  -14 12.8   1.345  1.817    35.9 / 142  16.2   93  .97

          20 18  05 08.11  -14 41.3   1.346  1.822    35.5 / 143  16.3   84  .99

NAKANO

         **** Don't distribute anyone except personal use only ****

                (C) Copyright 2002 OAA/ComputingSection

write mail from CFAD0::NAKANO on 2002-08-21 05:18:10(JST).

 



戻ります。